Location: Carabito
(9.8355°N, 67.9249°W)
Time: 00:43:10
(UTC+00:00)

Sylda 5 - Pass Details

Date: 23 May 2024
Orbit: 608 x 35441 km, 6.4° (Epoch: 11 June)

Event Time Altitude Azimuth Distance (km) Brightness Sun altitude
Rises 00:02:41 0° 253° (WSW) 7,528 8.3 -17.9°
Reaches altitude 10° 00:10:37 10° 240° (WSW) 4,087 6.7 -19.7°
Maximum altitude 00:16:45 22° 190° (S) 1,791 4.2 -21.1°
Enters shadow 00:17:28 21° 176° (S) 1,704 4.0 -21.2°
